Zurück zum Katalog

KPLO

AktivWissenschaftVLEO
NORAD 53365·PAYLOAD·🇰🇷 South Korea

Gestartet Aug 4, 2022 von Cape Canaveral Space Force Station

Loading…

Nächste Überflüge (nächste 24 Stunden)

TLE

VeraltetSource: Space-Track

Epoche: Aug 4, 2022, 23:16 UTC

1 53365U 22094A   22216.96995833  .00001843 -58274-5  00000-0 0  9992
2 53365  29.5000 147.2458 0003300 140.4700 307.5200 16.09976711    07

Verfolge KPLO in Echtzeit mit AllMySat

Download on the App Store